This is the latest recevied weather packets stored in our database for station/object IR3AS. If no packets are shown the sender has not sent any weather packets the latest 10 day(s).
| Time | Temp. | Humidity | Pressure | Rain* | Wind** | Luminosity | Snow |
|---|---|---|---|---|---|---|---|
| 1777818956 | 13.89° C | 48% | 862 hPa | 0 mm | - | - | - |
| 1777818656 | 15° C | 47% | 862 hPa | 0 mm | - | - | - |
| 1777818356 | 15° C | 47% | 861.8 hPa | 0 mm | - | - | - |
| 1777818056 | 15° C | 47% | 862 hPa | 0 mm | - | - | - |
| 1777817756 | 15.56° C | 47% | 862.3 hPa | 0 mm | - | - | - |
| 1777817456 | 15.56° C | 47% | 862 hPa | 0 mm | - | - | - |
| 1777817246 | 15° C | 48% | 862.1 hPa | 0 mm | - | - | - |
| 1777817156 | 15° C | 48% | 862.1 hPa | 0 mm | - | - | - |
| 1777816856 | 13.89° C | 48% | 861.8 hPa | 0 mm | - | - | - |
| 1777816556 | 13.33° C | 48% | 862.4 hPa | 0 mm | - | - | - |
| 1777816256 | 13.33° C | 47% | 862.1 hPa | 0 mm | - | - | - |
| 1777815956 | 13.33° C | 47% | 862.3 hPa | 0 mm | - | - | - |
| 1777815656 | 12.78° C | 46% | 862.2 hPa | 0 mm | - | - | - |
| 1777815356 | 13.33° C | 46% | 862.3 hPa | 0 mm | - | - | - |
| 1777815056 | 13.33° C | 45% | 862.1 hPa | 0 mm | - | - | - |
| 1777814756 | 13.33° C | 46% | 862.3 hPa | 0 mm | - | - | - |
| 1777814456 | 13.33° C | 46% | 862.1 hPa | 0 mm | - | - | - |
| 1777814156 | 12.78° C | 46% | 862.2 hPa | 0 mm | - | - | - |
| 1777813856 | 12.78° C | 45% | 862.6 hPa | 0 mm | - | - | - |
| 1777813556 | 13.33° C | 45% | 862.3 hPa | 0 mm | - | - | - |
| 1777813256 | 13.33° C | 45% | 862.4 hPa | 0 mm | - | - | - |
| 1777812956 | 13.33° C | 44% | 862 hPa | 0 mm | - | - | - |
| 1777812656 | 12.78° C | 44% | 862.3 hPa | 0 mm | - | - | - |
| 1777812356 | 12.78° C | 44% | 862.3 hPa | 0 mm | - | - | - |
| 1777812056 | 13.33° C | 43% | 862.4 hPa | 0 mm | - | - | - |
* Rain latest hour (hover to see other rain measurements)
** Current wind speed in m/s (hover to see current wind gust speed)